Le nostre stazioni meteo in Italia

Pubblicità
Il mio iltempo24.it
Chiavari, Italia (16123): Temperatura & dewpoint: 11.02.2019 13:00:00 - 17.02.2019 13:00:00 (CET)Chiavari, Italia (16123): velocità del vento: 11.02.2019 13:00:00 - 17.02.2019 13:00:00 (CET)Chiavari, Italia (16123): direzione del vento: 11.02.2019 13:00:00 - 17.02.2019 13:00:00 (CET)Chiavari, Italia (16123): reduced air pressure: 11.02.2019 13:00:00 - 17.02.2019 13:00:00 (CET)Chiavari, Italia (16123): precipitazioni: 11.02.2019 13:00:00 - 17.02.2019 13:00:00 (CET)
Data & Tempo tt [°C] td [°C] ff [km/h] ff [kn] dd ppp [hPa] rr [mm]
17.02.2019 13:00:00 13,9 9,3 9 5 SO 1028,9 -
17.02.2019 12:00:00 13,8 9,4 9 5 SSO 1029,5 -
17.02.2019 11:00:00 9,8 5,3 5 3 N 1029,8 -
17.02.2019 10:00:00 6,7 3,8 8 4 NE 1030,1 -
17.02.2019 09:00:00 4,5 3,0 13 7 NNE 1030,3 -
17.02.2019 08:00:00 3,8 2,3 11 6 NE 1029,9 -
17.02.2019 07:00:00 4,1 2,6 11 6 ENE 1029,2 -
17.02.2019 06:00:00 4,2 2,7 11 6 NE 1029,2 -
17.02.2019 05:00:00 4,6 2,8 11 6 NNE 1029,1 -
17.02.2019 04:00:00 5,1 3,3 11 6 ENE 1029,1 -
17.02.2019 03:00:00 5,5 3,6 13 7 ENE 1029,2 -
17.02.2019 02:00:00 5,8 3,9 13 7 NE 1029,2 -
17.02.2019 01:00:00 6,1 4,2 15 8 NE 1029,5 -
17.02.2019 00:00:00 6,5 4,5 9 5 ENE 1029,6 -
16.02.2019 23:00:00 7,0 5,0 9 5 ENE 1029,7 -
16.02.2019 22:00:00 7,7 5,5 11 6 NNE 1029,7 -
16.02.2019 21:00:00 8,3 5,7 5 3 ENE 1029,5 -
16.02.2019 20:00:00 9,4 6,4 5 3 N 1029,4 -
16.02.2019 19:00:00 11,3 6,8 5 3 NNE 1029,2 -
16.02.2019 18:00:00 13,7 9,1 4 2 OSO 1028,6 -
16.02.2019 17:00:00 14,2 7,9 5 3 SSO 1028,7 -
16.02.2019 16:00:00 15,2 7,9 5 3 SO 1029,0 -
16.02.2019 15:00:00 14,6 8,3 9 5 SSO 1029,5 -
16.02.2019 14:00:00 15,0 8,0 11 6 S 1030,1 -
16.02.2019 13:00:00 14,9 6,1 11 6 SO 1030,4 -
16.02.2019 12:00:00 15,4 6,6 9 5 SO 1030,8 -
16.02.2019 11:00:00 11,4 0,1 4 2 E 1030,6 -
16.02.2019 10:00:00 8,1 0,9 8 4 NNE 1030,5 -
16.02.2019 09:00:00 5,2 1,1 8 4 NE 1030,6 -
16.02.2019 08:00:00 4,4 0,7 9 5 NE 1030,1 -
16.02.2019 07:00:00 4,7 0,8 15 8 ENE 1029,7 -
16.02.2019 06:00:00 4,8 0,9 13 7 ENE 1029,8 -
16.02.2019 05:00:00 5,2 1,1 9 5 NE 1029,7 -
16.02.2019 04:00:00 5,6 1,1 13 7 NE 1029,8 -
16.02.2019 03:00:00 6,1 0,8 13 7 NE 1030,3 -
16.02.2019 02:00:00 6,3 1,4 15 8 NE 1030,3 -
16.02.2019 01:00:00 6,4 2,2 16 9 ENE 1030,4 -
16.02.2019 00:00:00 6,9 2,9 15 8 NE 1030,4 -
15.02.2019 23:00:00 7,1 3,1 15 8 ENE 1030,1 -
15.02.2019 22:00:00 7,7 3,5 15 8 ENE 1029,9 -
15.02.2019 21:00:00 8,3 4,1 9 5 E 1029,6 -
15.02.2019 20:00:00 9,5 5,2 8 4 N 1029,3 -
15.02.2019 19:00:00 10,6 7,1 5 3 NE 1028,9 -
15.02.2019 18:00:00 13,1 8,7 2 1 N 1028,5 -
15.02.2019 17:00:00 14,5 8,8 9 5 SO 1028,0 -
15.02.2019 16:00:00 14,1 7,6 8 4 SSO 1028,1 -
15.02.2019 15:00:00 14,6 8,5 9 5 SSO 1028,6 -
15.02.2019 14:00:00 14,4 7,8 9 5 SSO 1029,0 -
15.02.2019 13:00:00 14,4 6,9 9 5 SO 1029,7 -
15.02.2019 12:00:00 14,4 8,5 8 4 SO 1030,3 -
15.02.2019 11:00:00 10,3 -0,1 5 3 E 1030,6 -
15.02.2019 10:00:00 6,5 1,2 13 7 NNE 1031,1 -
15.02.2019 09:00:00 3,6 0,9 13 7 NE 1031,4 -
15.02.2019 08:00:00 2,8 0,5 11 6 NNE 1031,4 -
15.02.2019 07:00:00 2,9 0,9 11 6 NE 1031,0 -
15.02.2019 06:00:00 3,0 1,2 9 5 NE 1031,2 -
15.02.2019 05:00:00 3,4 1,6 9 5 ENE 1030,8 -
15.02.2019 04:00:00 3,8 1,6 8 4 N 1031,2 -
15.02.2019 03:00:00 4,2 2,0 9 5 NE 1031,5 -
15.02.2019 02:00:00 4,4 2,2 11 6 NE 1031,6 -
15.02.2019 01:00:00 4,9 2,4 9 5 NNE 1031,8 -
15.02.2019 00:00:00 5,5 2,6 11 6 NNE 1031,7 -
14.02.2019 23:00:00 6,2 3,0 9 5 NE 1031,6 -
14.02.2019 22:00:00 6,7 3,3 11 6 NNE 1031,6 -
14.02.2019 21:00:00 7,4 3,6 9 5 ENE 1031,7 -
14.02.2019 20:00:00 8,5 4,1 9 5 ENE 1031,8 -
14.02.2019 19:00:00 10,3 3,9 9 5 N 1031,7 -
14.02.2019 18:00:00 13,3 5,1 5 3 S 1031,1 -
14.02.2019 17:00:00 13,8 3,7 8 4 S 1031,0 -
14.02.2019 16:00:00 14,5 4,1 8 4 SO 1031,4 -
14.02.2019 15:00:00 14,6 3,9 11 6 S 1031,9 -
14.02.2019 14:00:00 14,7 3,7 9 5 SSO 1032,5 -
14.02.2019 13:00:00 14,1 6,1 9 5 SSO 1033,4 -
14.02.2019 12:00:00 14,0 4,2 11 6 OSO 1034,2 -
14.02.2019 11:00:00 10,5 0,1 4 2 NE 1034,1 -
14.02.2019 10:00:00 7,1 0,4 9 5 NE 1034,4 -
14.02.2019 09:00:00 4,3 0,6 13 7 NE 1035,0 -
14.02.2019 08:00:00 3,3 0,1 13 7 ENE 1035,2 -
14.02.2019 07:00:00 3,4 0,1 13 7 ENE 1035,2 0,0
14.02.2019 06:00:00 3,5 0,3 15 8 NE 1035,8 -
14.02.2019 05:00:00 3,8 0,6 15 8 ENE 1035,9 -
14.02.2019 04:00:00 3,9 0,9 15 8 NNE 1036,0 -
14.02.2019 03:00:00 4,2 1,2 16 9 NE 1036,1 -
14.02.2019 02:00:00 4,3 1,5 15 8 NE 1036,2 -
14.02.2019 01:00:00 4,5 1,8 13 7 ENE 1036,4 0,0
14.02.2019 00:00:00 5,0 2,3 13 7 NE 1036,2 -
13.02.2019 23:00:00 5,5 2,8 11 6 NNE 1036,0 -
13.02.2019 22:00:00 6,0 3,1 11 6 NE 1035,7 -
13.02.2019 21:00:00 6,5 3,3 5 3 NNE 1035,3 -
13.02.2019 20:00:00 7,5 3,7 8 4 NNE 1035,2 -
13.02.2019 19:00:00 8,9 3,0 8 4 NNE 1035,0 0,0
13.02.2019 18:00:00 11,8 1,3 0 0 N 1034,2 -
13.02.2019 17:00:00 12,9 1,1 5 3 SSO 1034,0 -
13.02.2019 16:00:00 13,1 1,3 8 4 SO 1033,6 -
13.02.2019 15:00:00 13,1 1,0 8 4 SO 1033,7 -
13.02.2019 14:00:00 13,1 1,3 9 5 S 1033,9 -
13.02.2019 13:00:00 13,3 2,4 9 5 S 1034,3 -
13.02.2019 12:00:00 13,5 3,7 11 6 SO 1034,6 -
13.02.2019 11:00:00 9,5 -2,3 4 2 ENE 1034,2 -
13.02.2019 10:00:00 6,3 -2,4 11 6 NNE 1034,0 -
13.02.2019 09:00:00 3,4 -1,6 13 7 E 1033,7 -
13.02.2019 08:00:00 2,3 -1,4 13 7 NE 1033,1 -
13.02.2019 07:00:00 2,3 -1,4 11 6 NE 1032,1 0,0
13.02.2019 06:00:00 2,5 -0,8 11 6 N 1031,6 -
13.02.2019 05:00:00 2,8 -0,7 13 7 NE 1030,9 -
13.02.2019 04:00:00 3,3 -0,6 11 6 NE 1030,4 -
13.02.2019 03:00:00 3,6 -0,1 9 5 ENE 1029,9 -
13.02.2019 02:00:00 4,1 0,2 13 7 ENE 1029,5 -
13.02.2019 01:00:00 4,6 0,1 13 7 NE 1029,3 0,0
13.02.2019 00:00:00 5,2 1,1 11 6 ENE 1028,5 -
12.02.2019 23:00:00 6,1 1,9 15 8 ENE 1028,2 -
12.02.2019 22:00:00 6,8 2,0 11 6 ENE 1027,6 -
12.02.2019 21:00:00 7,7 1,9 11 6 NE 1026,8 -
12.02.2019 20:00:00 8,8 2,9 8 4 NE 1026,3 -
12.02.2019 19:00:00 9,9 3,8 4 2 NE 1025,4 0,0
12.02.2019 18:00:00 12,7 4,3 0 0 N 1024,5 -
12.02.2019 17:00:00 13,7 4,2 5 3 SSO 1023,9 -
12.02.2019 16:00:00 14,9 1,0 9 5 OSO 1023,7 -
12.02.2019 15:00:00 16,4 -6,1 15 8 SO 1023,4 -
12.02.2019 14:00:00 16,2 -4,5 11 6 SO 1023,4 -
12.02.2019 13:00:00 16,1 -9,1 8 4 SSO 1023,8 -
12.02.2019 12:00:00 15,8 -8,6 9 5 SO 1024,4 -
12.02.2019 11:00:00 15,0 -5,5 5 3 S 1024,8 -
12.02.2019 10:00:00 12,8 -9,1 2 1 ESE 1024,7 -
12.02.2019 09:00:00 10,8 -11,4 8 4 NE 1024,4 -
12.02.2019 08:00:00 10,8 -10,8 16 9 NNE 1024,0 -
12.02.2019 07:00:00 11,6 -13,4 15 8 NNE 1023,4 0,0
12.02.2019 06:00:00 11,4 -12,9 9 5 NNO 1023,1 -
12.02.2019 05:00:00 11,3 -12,3 16 9 NE 1021,8 -
12.02.2019 04:00:00 12,2 -12,3 29 16 ENE 1021,3 -
12.02.2019 03:00:00 12,1 -13,0 18 10 NE 1021,2 -
12.02.2019 02:00:00 12,5 -12,8 26 14 NE 1021,4 -
12.02.2019 01:00:00 11,7 -12,7 13 7 ENE 1020,9 0,0
12.02.2019 00:00:00 12,4 -12,8 16 9 NNE 1020,3 -
11.02.2019 23:00:00 12,3 -12,2 18 10 N 1019,4 -
11.02.2019 22:00:00 12,3 -12,9 21 11 N 1018,6 -
11.02.2019 21:00:00 12,3 -13,7 8 4 ESE 1017,8 -
11.02.2019 20:00:00 12,0 -13,9 15 8 ENE 1016,7 -
11.02.2019 19:00:00 12,0 -11,7 2 1 NO 1016,0 0,0
11.02.2019 18:00:00 13,4 -14,5 4 2 NO 1014,7 -
11.02.2019 17:00:00 14,1 -13,0 9 5 N 1013,7 -
11.02.2019 16:00:00 15,0 -10,7 18 10 NNO 1013,0 -
11.02.2019 15:00:00 14,6 -10,3 16 9 NE 1012,2 -
11.02.2019 14:00:00 14,9 -11,6 16 9 N 1012,1 -
11.02.2019 13:00:00 14,4 -12,0 9 5 NNE 1011,3 0,0

tt = Temperatura
td = dewpoint
ff = velocità del vento
dd = direzione del vento
ppp = reduced air pressure
rr = precipitazioni

Stazioni seguenti

WeatherPro
AMSI
MeteoEarth